Year,Month,Day,Hour,Minute,Value (Times are PST for temperature in C)
2005,05,24,00,00,12.00
2005,05,24,00,01,12.00
2005,05,24,00,02,12.00
2005,05,24,00,03,12.00
2005,05,24,00,04,12.00
2005,05,24,00,05,12.00
2005,05,24,00,06,12.00
2005,05,24,00,07,12.00
2005,05,24,00,08,12.00
2005,05,24,00,09,11.90
2005,05,24,00,10,11.90
2005,05,24,00,11,11.90
2005,05,24,00,12,11.90
2005,05,24,00,13,11.90
2005,05,24,00,14,11.90
2005,05,24,00,17,11.80
2005,05,24,00,18,11.80
2005,05,24,00,19,11.80
2005,05,24,00,20,11.80
2005,05,24,00,26,11.80
2005,05,24,00,29,11.70
2005,05,24,00,33,11.60
2005,05,24,00,41,11.30
2005,05,24,00,44,11.20
2005,05,24,00,46,11.20
2005,05,24,00,47,11.10
2005,05,24,00,48,11.10
2005,05,24,00,51,11.10
2005,05,24,00,52,10.90
2005,05,24,00,53,10.90
2005,05,24,00,54,10.90
2005,05,24,00,55,10.80
2005,05,24,00,57,10.60
2005,05,24,00,58,10.60
2005,05,24,00,59,10.60
2005,05,24,01,02,10.60
2005,05,24,01,05,10.60
2005,05,24,01,06,10.60
2005,05,24,01,07,10.60
2005,05,24,01,08,10.60
2005,05,24,01,09,10.50
2005,05,24,01,10,10.40
2005,05,24,01,11,10.40
2005,05,24,01,13,10.40
2005,05,24,01,14,10.40
2005,05,24,01,17,10.60
2005,05,24,01,20,10.60
2005,05,24,01,21,10.60
2005,05,24,01,22,10.60
2005,05,24,01,24,10.40
2005,05,24,01,27,10.50
2005,05,24,01,28,10.50
2005,05,24,01,29,10.50
2005,05,24,01,31,10.40
2005,05,24,01,32,10.40
2005,05,24,01,34,10.40
2005,05,24,01,35,10.40
2005,05,24,01,36,10.40
2005,05,24,01,37,10.40
2005,05,24,01,38,10.30
2005,05,24,01,39,10.30
2005,05,24,01,40,10.30
2005,05,24,01,41,10.30
2005,05,24,01,42,10.30
2005,05,24,01,43,10.30
2005,05,24,01,44,10.30
2005,05,24,01,45,10.30
2005,05,24,01,46,10.30
2005,05,24,01,47,10.30
2005,05,24,01,48,10.30
2005,05,24,01,49,10.30
2005,05,24,01,50,10.30
2005,05,24,01,51,10.30
2005,05,24,01,52,10.30
2005,05,24,01,53,10.20
2005,05,24,01,54,10.20
2005,05,24,01,55,10.20
2005,05,24,01,56,10.20
2005,05,24,01,57,10.10
2005,05,24,01,58,10.10
2005,05,24,01,59,10.10
2005,05,24,02,00,10.00
2005,05,24,02,01,9.90
2005,05,24,02,02,9.90
2005,05,24,02,03,9.90
2005,05,24,02,04,9.90
2005,05,24,02,05,9.90
2005,05,24,02,06,9.90
2005,05,24,02,07,9.90
2005,05,24,02,08,9.90
2005,05,24,02,09,9.90
2005,05,24,02,10,9.90
2005,05,24,02,11,9.90
2005,05,24,02,12,9.90
2005,05,24,02,13,9.90
2005,05,24,02,14,9.90
2005,05,24,02,15,9.90
2005,05,24,02,16,9.90
2005,05,24,02,17,9.90
2005,05,24,02,18,9.90
2005,05,24,02,19,9.90
2005,05,24,02,20,9.90
2005,05,24,02,21,9.90
2005,05,24,02,22,9.90
2005,05,24,02,23,9.90
2005,05,24,02,24,9.90
2005,05,24,02,25,9.90
2005,05,24,02,26,9.90
2005,05,24,02,27,10.00
2005,05,24,02,28,10.00
2005,05,24,02,29,10.00
2005,05,24,02,30,9.90
2005,05,24,02,31,9.90
2005,05,24,02,32,9.90
2005,05,24,02,33,9.90
2005,05,24,02,34,9.90
2005,05,24,02,35,10.00
2005,05,24,02,36,10.00
2005,05,24,02,37,10.00
2005,05,24,02,38,10.00
2005,05,24,02,39,10.00
2005,05,24,02,40,10.00
2005,05,24,02,41,10.00
2005,05,24,02,42,10.10
2005,05,24,02,43,10.10
2005,05,24,02,44,10.10
2005,05,24,02,45,10.10
2005,05,24,02,46,10.10
2005,05,24,02,47,10.10
2005,05,24,02,48,10.10
2005,05,24,02,49,10.10
2005,05,24,02,50,10.00
2005,05,24,02,51,10.00
2005,05,24,02,52,10.10
2005,05,24,02,53,10.10
2005,05,24,02,54,10.10
2005,05,24,02,55,10.10
2005,05,24,02,56,10.00
2005,05,24,02,57,9.90
2005,05,24,02,58,9.90
2005,05,24,02,59,9.80
2005,05,24,03,00,9.80
2005,05,24,03,01,9.80
2005,05,24,03,02,9.70
2005,05,24,03,03,9.60
2005,05,24,03,04,9.50
2005,05,24,03,05,9.50
2005,05,24,03,06,9.40
2005,05,24,03,07,9.40
2005,05,24,03,08,9.30
2005,05,24,03,09,9.30
2005,05,24,03,10,9.30
2005,05,24,03,11,9.30
2005,05,24,03,12,9.40
2005,05,24,03,13,9.40
2005,05,24,03,14,9.40
2005,05,24,03,15,9.40
2005,05,24,03,16,9.50
2005,05,24,03,17,9.40
2005,05,24,03,18,9.30
2005,05,24,03,19,9.20
2005,05,24,03,20,9.20
2005,05,24,03,21,9.10
2005,05,24,03,22,9.10
2005,05,24,03,23,9.00
2005,05,24,03,24,9.00
2005,05,24,03,25,9.00
2005,05,24,03,26,9.00
2005,05,24,03,27,9.00
2005,05,24,03,28,9.00
2005,05,24,03,29,9.00
2005,05,24,03,30,9.00
2005,05,24,03,31,8.90
2005,05,24,03,32,8.90
2005,05,24,03,33,8.80
2005,05,24,03,34,8.80
2005,05,24,03,35,8.80
2005,05,24,03,36,8.90
2005,05,24,03,37,8.90
2005,05,24,03,38,9.00
2005,05,24,03,39,9.00
2005,05,24,03,40,9.00
2005,05,24,03,41,8.90
2005,05,24,03,42,9.00
2005,05,24,03,43,9.00
2005,05,24,03,44,8.90
2005,05,24,03,45,8.90
2005,05,24,03,46,8.90
2005,05,24,03,47,8.90
2005,05,24,03,48,8.80
2005,05,24,03,49,8.80
2005,05,24,03,50,8.70
2005,05,24,03,51,8.70
2005,05,24,03,52,8.70
2005,05,24,03,53,8.70
2005,05,24,03,54,8.70
2005,05,24,03,55,8.70
2005,05,24,03,56,8.70
2005,05,24,03,57,8.60
2005,05,24,03,58,8.60
2005,05,24,03,59,8.60
2005,05,24,04,00,8.60
2005,05,24,04,01,8.60
2005,05,24,04,02,8.70
2005,05,24,04,03,8.70
2005,05,24,04,04,8.70
2005,05,24,04,05,8.70
2005,05,24,04,06,8.60
2005,05,24,04,07,8.70
2005,05,24,04,08,8.70
2005,05,24,04,09,8.70
2005,05,24,04,10,8.70
2005,05,24,04,11,8.70
2005,05,24,04,12,8.70
2005,05,24,04,13,8.70
2005,05,24,04,14,8.70
2005,05,24,04,15,8.70
2005,05,24,04,16,8.70
2005,05,24,04,17,8.70
2005,05,24,04,18,8.60
2005,05,24,04,19,8.60
2005,05,24,04,20,8.60
2005,05,24,04,21,8.60
2005,05,24,04,22,8.70
2005,05,24,04,23,8.70
2005,05,24,04,24,8.60
2005,05,24,04,25,8.60
2005,05,24,04,26,8.60
2005,05,24,04,27,8.60
2005,05,24,04,28,8.60
2005,05,24,04,29,8.50
2005,05,24,04,30,8.60
2005,05,24,04,31,8.60
2005,05,24,04,32,8.70
2005,05,24,04,33,8.80
2005,05,24,04,34,8.80
2005,05,24,04,35,8.80
2005,05,24,04,36,8.90
2005,05,24,04,37,8.90
2005,05,24,04,38,9.00
2005,05,24,04,39,9.00
2005,05,24,04,40,9.00
2005,05,24,04,41,9.10
2005,05,24,04,42,9.10
2005,05,24,04,43,9.20
2005,05,24,04,44,9.20
2005,05,24,04,45,9.20
2005,05,24,04,46,9.20
2005,05,24,04,47,9.20
2005,05,24,04,48,9.20
2005,05,24,04,49,9.20
2005,05,24,04,50,9.20
2005,05,24,04,51,9.20
2005,05,24,04,52,9.20
2005,05,24,04,53,9.20
2005,05,24,04,54,9.20
2005,05,24,04,55,9.20
2005,05,24,04,56,9.20
2005,05,24,04,57,9.20
2005,05,24,04,58,9.20
2005,05,24,04,59,9.20
2005,05,24,05,00,9.20
2005,05,24,05,01,9.20
2005,05,24,05,02,9.20
2005,05,24,05,03,9.20
2005,05,24,05,04,9.20
2005,05,24,05,05,9.20
2005,05,24,05,06,9.20
2005,05,24,05,07,9.20
2005,05,24,05,08,9.10
2005,05,24,05,09,9.10
2005,05,24,05,10,9.00
2005,05,24,05,11,8.90
2005,05,24,05,12,8.80
2005,05,24,05,13,8.80
2005,05,24,05,14,8.70
2005,05,24,05,15,8.60
2005,05,24,05,16,8.60
2005,05,24,05,17,8.50
2005,05,24,05,18,8.50
2005,05,24,05,19,8.40
2005,05,24,05,20,8.30
2005,05,24,05,21,8.30
2005,05,24,05,22,8.30
2005,05,24,05,23,8.30
2005,05,24,05,24,8.20
2005,05,24,05,25,8.20
2005,05,24,05,26,8.20
2005,05,24,05,27,8.20
2005,05,24,05,28,8.10
2005,05,24,05,29,8.10
2005,05,24,05,30,8.10
2005,05,24,05,31,8.10
2005,05,24,05,32,8.10
2005,05,24,05,33,8.10
2005,05,24,05,34,8.10
2005,05,24,05,35,8.10
2005,05,24,05,36,8.10
2005,05,24,05,37,8.10
2005,05,24,05,38,8.10
2005,05,24,05,39,8.10
2005,05,24,05,40,8.00
2005,05,24,05,41,8.10
2005,05,24,05,42,8.10
2005,05,24,05,43,8.10
2005,05,24,05,44,8.20
2005,05,24,05,45,8.20
2005,05,24,05,46,8.20
2005,05,24,05,47,8.20
2005,05,24,05,48,8.20
2005,05,24,05,49,8.30
2005,05,24,05,50,8.40
2005,05,24,05,51,8.50
2005,05,24,05,52,8.50
2005,05,24,05,53,8.50
2005,05,24,05,54,8.50
2005,05,24,05,55,8.50
2005,05,24,05,56,8.40
2005,05,24,05,57,8.30
2005,05,24,05,58,8.30
2005,05,24,05,59,8.30
2005,05,24,06,00,8.30
2005,05,24,06,01,8.40
2005,05,24,06,02,8.50
2005,05,24,06,03,8.50
2005,05,24,06,04,8.60
2005,05,24,06,05,8.70
2005,05,24,06,06,8.70
2005,05,24,06,07,8.80
2005,05,24,06,08,8.90
2005,05,24,06,09,9.00
2005,05,24,06,10,9.00
2005,05,24,06,11,9.10
2005,05,24,06,12,9.10
2005,05,24,06,13,9.10
2005,05,24,06,14,9.20
2005,05,24,06,15,9.20
2005,05,24,06,16,9.20
2005,05,24,06,17,9.20
2005,05,24,06,18,9.30
2005,05,24,06,19,9.30
2005,05,24,06,20,9.40
2005,05,24,06,21,9.50
2005,05,24,06,22,9.60
2005,05,24,06,23,9.70
2005,05,24,06,24,9.70
2005,05,24,06,25,9.80
2005,05,24,06,26,9.90
2005,05,24,06,27,10.00
2005,05,24,06,28,10.10
2005,05,24,06,29,10.10
2005,05,24,06,30,10.10
2005,05,24,06,31,10.10
2005,05,24,06,32,10.10
2005,05,24,06,33,10.10
2005,05,24,06,34,10.20
2005,05,24,06,35,10.20
2005,05,24,06,36,10.20
2005,05,24,06,37,10.20
2005,05,24,06,38,10.30
2005,05,24,06,39,10.40
2005,05,24,06,40,10.40
2005,05,24,06,41,10.50
2005,05,24,06,42,10.70
2005,05,24,06,43,10.70
2005,05,24,06,44,10.70
2005,05,24,06,45,10.80
2005,05,24,06,46,10.70
2005,05,24,06,47,10.70
2005,05,24,06,48,10.60
2005,05,24,06,49,10.60
2005,05,24,06,50,10.60
2005,05,24,06,51,10.60
2005,05,24,06,52,10.60
2005,05,24,06,53,10.60
2005,05,24,06,54,10.60
2005,05,24,06,55,10.60
2005,05,24,06,56,10.60
2005,05,24,06,57,10.70
2005,05,24,06,58,10.70
2005,05,24,06,59,10.70
2005,05,24,07,00,10.80
2005,05,24,07,01,10.80
2005,05,24,07,02,10.80
2005,05,24,07,03,10.80
2005,05,24,07,04,10.90
2005,05,24,07,05,10.90
2005,05,24,07,06,11.00
2005,05,24,07,07,11.10
2005,05,24,07,08,11.20
2005,05,24,07,09,11.30
2005,05,24,07,10,11.40
2005,05,24,07,11,11.40
2005,05,24,07,12,11.50
2005,05,24,07,13,11.60
2005,05,24,07,14,11.60
2005,05,24,07,15,11.70
2005,05,24,07,16,11.80
2005,05,24,07,17,11.90
2005,05,24,07,18,11.90
2005,05,24,07,19,12.00
2005,05,24,07,20,12.10
2005,05,24,07,21,12.20
2005,05,24,07,22,12.20
2005,05,24,07,23,12.30
2005,05,24,07,24,12.30
2005,05,24,07,25,12.30
2005,05,24,07,26,12.30
2005,05,24,07,27,12.30
2005,05,24,07,28,12.40
2005,05,24,07,29,12.50
2005,05,24,07,30,12.50
2005,05,24,07,31,12.60
2005,05,24,07,32,12.60
2005,05,24,07,33,12.70
2005,05,24,07,34,12.70
2005,05,24,07,35,12.70
2005,05,24,07,36,12.70
2005,05,24,07,37,12.80
2005,05,24,07,38,12.90
2005,05,24,07,39,13.00
2005,05,24,07,40,13.00
2005,05,24,07,41,13.00
2005,05,24,07,42,13.00
2005,05,24,07,43,13.00
2005,05,24,07,44,13.00
2005,05,24,07,45,13.00
2005,05,24,07,46,13.00
2005,05,24,07,47,13.00
2005,05,24,07,48,13.00
2005,05,24,07,49,13.10
2005,05,24,07,50,13.20
2005,05,24,07,51,13.10
2005,05,24,07,52,13.20
2005,05,24,07,53,13.20
2005,05,24,07,54,13.20
2005,05,24,07,55,13.20
2005,05,24,07,56,13.20
2005,05,24,07,57,13.30
2005,05,24,07,58,13.30
2005,05,24,07,59,13.40
2005,05,24,08,00,13.50
2005,05,24,08,01,13.50
2005,05,24,08,02,13.50
2005,05,24,08,03,13.50
2005,05,24,08,04,13.60
2005,05,24,08,05,13.50
2005,05,24,08,06,13.60
2005,05,24,08,07,13.60
2005,05,24,08,08,13.60
2005,05,24,08,09,13.70
2005,05,24,08,10,13.60
2005,05,24,08,11,13.50
2005,05,24,08,12,13.60
2005,05,24,08,13,13.70
2005,05,24,08,14,13.70
2005,05,24,08,15,13.60
2005,05,24,08,16,13.60
2005,05,24,08,17,13.50
2005,05,24,08,18,13.40
2005,05,24,08,19,13.30
2005,05,24,08,20,13.20
2005,05,24,08,21,13.20
2005,05,24,08,22,13.00
2005,05,24,08,23,12.90
2005,05,24,08,24,12.80
2005,05,24,08,25,12.80
2005,05,24,08,26,12.80
2005,05,24,08,27,12.90
2005,05,24,08,28,12.80
2005,05,24,08,29,12.80
2005,05,24,08,30,12.90
2005,05,24,08,31,12.90
2005,05,24,08,32,12.90
2005,05,24,08,33,12.90
2005,05,24,08,34,12.90
2005,05,24,08,35,13.00
2005,05,24,08,36,13.00
2005,05,24,08,37,13.10
2005,05,24,08,38,13.10
2005,05,24,08,39,13.20
2005,05,24,08,40,13.20
2005,05,24,08,41,13.20
2005,05,24,08,42,13.40
2005,05,24,08,43,13.50
2005,05,24,08,44,13.50
2005,05,24,08,45,13.60
2005,05,24,08,46,13.50
2005,05,24,08,47,13.30
2005,05,24,08,48,13.20
2005,05,24,08,49,13.10
2005,05,24,08,50,13.10
2005,05,24,08,51,12.90
2005,05,24,08,52,13.00
2005,05,24,08,53,12.90
2005,05,24,08,54,12.80
2005,05,24,08,55,12.80
2005,05,24,08,56,12.80
2005,05,24,08,57,12.80
2005,05,24,08,58,12.90
2005,05,24,08,59,13.00
2005,05,24,09,00,13.00
2005,05,24,09,01,13.00
2005,05,24,09,02,13.00
2005,05,24,09,03,13.00
2005,05,24,09,04,13.00
2005,05,24,09,05,13.00
2005,05,24,09,06,12.90
2005,05,24,09,07,12.80
2005,05,24,09,08,12.70
2005,05,24,09,09,12.70
2005,05,24,09,10,12.70
2005,05,24,09,11,12.70
2005,05,24,09,12,12.70
2005,05,24,09,13,12.80
2005,05,24,09,14,12.80
2005,05,24,09,15,12.90
2005,05,24,09,16,13.00
2005,05,24,09,17,13.10
2005,05,24,09,18,13.20
2005,05,24,09,19,13.20
2005,05,24,09,20,13.10
2005,05,24,09,21,13.10
2005,05,24,09,22,13.00
2005,05,24,09,23,12.90
2005,05,24,09,24,12.80
2005,05,24,09,25,12.80
2005,05,24,09,26,12.70
2005,05,24,09,27,12.70
2005,05,24,09,28,12.80
2005,05,24,09,29,12.70
2005,05,24,09,30,12.70
2005,05,24,09,31,12.70
2005,05,24,09,32,12.70
2005,05,24,09,33,12.70
2005,05,24,09,34,12.80
2005,05,24,09,35,12.90
2005,05,24,09,36,12.90
2005,05,24,09,37,12.90
2005,05,24,09,38,12.90
2005,05,24,09,39,12.90
2005,05,24,09,40,12.90
2005,05,24,09,41,12.90
2005,05,24,09,42,13.00
2005,05,24,09,43,12.90
2005,05,24,09,44,12.90
2005,05,24,09,45,12.90
2005,05,24,09,46,12.80
2005,05,24,09,47,12.80
2005,05,24,09,48,12.90
2005,05,24,09,49,12.90
2005,05,24,09,50,12.80
2005,05,24,09,51,12.70
2005,05,24,09,52,12.80
2005,05,24,09,53,12.80
2005,05,24,09,54,12.90
2005,05,24,09,55,13.10
2005,05,24,09,56,13.30
2005,05,24,09,57,13.40
2005,05,24,09,58,13.40
2005,05,24,09,59,13.50
2005,05,24,10,00,13.50
2005,05,24,10,01,13.40
2005,05,24,10,02,13.30
2005,05,24,10,03,13.30
2005,05,24,10,04,13.30
2005,05,24,10,05,13.50
2005,05,24,10,06,13.60
2005,05,24,10,07,13.70
2005,05,24,10,08,13.80
2005,05,24,10,09,13.90
2005,05,24,10,10,13.90
2005,05,24,10,11,14.00
2005,05,24,10,12,14.00
2005,05,24,10,13,14.00
2005,05,24,10,14,14.10
2005,05,24,10,15,14.00
2005,05,24,10,16,13.80
2005,05,24,10,17,13.60
2005,05,24,10,18,13.50
2005,05,24,10,19,13.40
2005,05,24,10,20,13.50
2005,05,24,10,21,13.60
2005,05,24,10,22,13.60
2005,05,24,10,23,13.80
2005,05,24,10,24,13.90
2005,05,24,10,25,14.00
2005,05,24,10,26,14.00
2005,05,24,10,27,13.90
2005,05,24,10,28,13.90
2005,05,24,10,29,13.80
2005,05,24,10,30,13.90
2005,05,24,10,31,13.90
2005,05,24,10,32,14.10
2005,05,24,10,33,14.20
2005,05,24,10,34,14.40
2005,05,24,10,35,14.50
2005,05,24,10,36,14.60
2005,05,24,10,37,14.70
2005,05,24,10,38,14.60
2005,05,24,10,39,14.60
2005,05,24,10,40,14.40
2005,05,24,10,41,14.30
2005,05,24,10,42,14.30
2005,05,24,10,43,14.30
2005,05,24,10,44,14.20
2005,05,24,10,45,14.20
2005,05,24,10,46,14.30
2005,05,24,10,47,14.40
2005,05,24,10,48,14.40
2005,05,24,10,49,14.40
2005,05,24,10,50,14.20
2005,05,24,10,51,14.10
2005,05,24,10,52,13.80
2005,05,24,10,53,13.60
2005,05,24,10,54,13.60
2005,05,24,10,55,13.60
2005,05,24,10,56,13.70
2005,05,24,10,57,13.80
2005,05,24,10,58,13.90
2005,05,24,10,59,13.90
2005,05,24,11,00,14.00
2005,05,24,11,01,14.00
2005,05,24,11,02,14.00
2005,05,24,11,03,14.00
2005,05,24,11,04,14.00
2005,05,24,11,05,13.90
2005,05,24,11,06,13.80
2005,05,24,11,07,13.90
2005,05,24,11,08,14.00
2005,05,24,11,09,14.00
2005,05,24,11,10,14.10
2005,05,24,11,11,14.10
2005,05,24,11,12,14.10
2005,05,24,11,13,14.10
2005,05,24,11,14,14.00
2005,05,24,11,15,13.90
2005,05,24,11,16,13.90
2005,05,24,11,17,13.90
2005,05,24,11,18,13.90
2005,05,24,11,19,13.90
2005,05,24,11,20,14.00
2005,05,24,11,21,13.90
2005,05,24,11,22,13.80
2005,05,24,11,23,13.70
2005,05,24,11,24,13.70
2005,05,24,11,25,13.70
2005,05,24,11,26,13.70
2005,05,24,11,27,13.70
2005,05,24,11,28,13.80
2005,05,24,11,29,13.70
2005,05,24,11,30,13.60
2005,05,24,11,31,13.60
2005,05,24,11,32,13.60
2005,05,24,11,33,13.50
2005,05,24,11,34,13.40
2005,05,24,11,35,13.30
2005,05,24,11,36,13.40
2005,05,24,11,37,13.50
2005,05,24,11,38,13.60
2005,05,24,11,39,13.50
2005,05,24,11,40,13.40
2005,05,24,11,41,13.50
2005,05,24,11,42,13.50
2005,05,24,11,43,13.60
2005,05,24,11,44,13.70
2005,05,24,11,45,13.70
2005,05,24,11,46,13.80
2005,05,24,11,47,13.80
2005,05,24,11,48,13.90
2005,05,24,11,49,13.90
2005,05,24,11,50,13.90
2005,05,24,11,51,14.10
2005,05,24,11,52,14.00
2005,05,24,11,53,14.10
2005,05,24,11,54,14.00
2005,05,24,11,55,13.90
2005,05,24,11,56,13.70
2005,05,24,11,57,13.70
2005,05,24,11,58,13.60
2005,05,24,11,59,13.60
2005,05,24,12,00,13.50
2005,05,24,12,01,13.60
2005,05,24,12,02,13.70
2005,05,24,12,03,13.70
2005,05,24,12,04,13.70
2005,05,24,12,06,13.70
2005,05,24,12,07,13.70
2005,05,24,12,08,13.70
2005,05,24,12,09,13.70
2005,05,24,12,10,13.70
2005,05,24,12,11,13.70
2005,05,24,12,12,13.60
2005,05,24,12,13,13.70
2005,05,24,12,14,13.70
2005,05,24,12,15,13.80
2005,05,24,12,16,14.00
2005,05,24,12,17,14.00
2005,05,24,12,18,13.90
2005,05,24,12,19,13.80
2005,05,24,12,20,13.70
2005,05,24,12,21,13.60
2005,05,24,12,22,13.60
2005,05,24,12,23,13.70
2005,05,24,12,24,13.80
2005,05,24,12,25,13.70
2005,05,24,12,26,13.70
2005,05,24,12,27,13.60
2005,05,24,12,28,13.80
2005,05,24,12,29,13.90
2005,05,24,12,30,14.00
2005,05,24,12,31,14.10
2005,05,24,12,32,14.20
2005,05,24,12,33,14.50
2005,05,24,12,34,14.60
2005,05,24,12,35,14.50
2005,05,24,12,36,14.40
2005,05,24,12,37,14.40
2005,05,24,12,38,14.30
2005,05,24,12,39,14.30
2005,05,24,12,40,14.20
2005,05,24,12,41,14.20
2005,05,24,12,42,14.40
2005,05,24,12,43,14.50
2005,05,24,12,44,14.40
2005,05,24,12,45,14.50
2005,05,24,12,46,14.40
2005,05,24,12,47,14.30
2005,05,24,12,48,14.10
2005,05,24,12,49,14.00
2005,05,24,12,50,14.00
2005,05,24,12,51,14.20
2005,05,24,12,52,14.20
2005,05,24,12,53,14.30
2005,05,24,12,54,14.40
2005,05,24,12,55,14.40
2005,05,24,12,56,14.40
2005,05,24,12,57,14.30
2005,05,24,12,58,14.20
2005,05,24,12,59,14.20
2005,05,24,13,00,14.10
2005,05,24,13,01,14.00
2005,05,24,13,02,14.00
2005,05,24,13,03,14.30
2005,05,24,13,04,14.40
2005,05,24,13,05,14.50
2005,05,24,13,06,14.70
2005,05,24,13,07,14.80
2005,05,24,13,08,14.70
2005,05,24,13,09,14.70
2005,05,24,13,10,14.70
2005,05,24,13,11,14.80
2005,05,24,13,12,14.80
2005,05,24,13,13,14.60
2005,05,24,13,14,14.60
2005,05,24,13,15,14.80
2005,05,24,13,16,14.80
2005,05,24,13,17,15.10
2005,05,24,13,18,15.10
2005,05,24,13,19,15.10
2005,05,24,13,20,15.10
2005,05,24,13,21,15.10
2005,05,24,13,22,15.00
2005,05,24,13,23,14.80
2005,05,24,13,24,14.90
2005,05,24,13,25,14.90
2005,05,24,13,26,14.80
2005,05,24,13,27,14.80
2005,05,24,13,28,14.80
2005,05,24,13,29,14.90
2005,05,24,13,30,15.00
2005,05,24,13,31,15.10
2005,05,24,13,32,14.90
2005,05,24,13,33,14.70
2005,05,24,13,34,14.70
2005,05,24,13,35,14.80
2005,05,24,13,36,14.80
2005,05,24,13,37,14.80
2005,05,24,13,38,14.80
2005,05,24,13,39,14.80
2005,05,24,13,40,15.00
2005,05,24,13,41,15.20
2005,05,24,13,42,15.40
2005,05,24,13,43,15.50
2005,05,24,13,44,15.70
2005,05,24,13,45,15.70
2005,05,24,13,46,15.80
2005,05,24,13,47,15.80
2005,05,24,13,48,15.80
2005,05,24,13,49,15.60
2005,05,24,13,50,15.40
2005,05,24,13,51,15.10
2005,05,24,13,52,15.00
2005,05,24,13,53,15.10
2005,05,24,13,54,15.20
2005,05,24,13,55,15.30
2005,05,24,13,56,15.30
2005,05,24,13,57,15.30
2005,05,24,13,58,15.30
2005,05,24,13,59,15.40
2005,05,24,14,00,15.30
2005,05,24,14,01,15.20
2005,05,24,14,02,15.20
2005,05,24,14,03,15.40
2005,05,24,14,04,15.70
2005,05,24,14,05,15.80
2005,05,24,14,06,15.90
2005,05,24,14,07,15.60
2005,05,24,14,08,15.50
2005,05,24,14,09,15.50
2005,05,24,14,10,15.20
2005,05,24,14,11,15.20
2005,05,24,14,12,15.20
2005,05,24,14,13,15.20
2005,05,24,14,14,15.20
2005,05,24,14,15,15.30
2005,05,24,14,16,15.30
2005,05,24,14,17,15.20
2005,05,24,14,18,15.00
2005,05,24,14,19,14.90
2005,05,24,14,20,14.90
2005,05,24,14,21,14.80
2005,05,24,14,22,14.70
2005,05,24,14,23,14.80
2005,05,24,14,24,14.90
2005,05,24,14,25,14.80
2005,05,24,14,26,14.80
2005,05,24,14,27,14.90
2005,05,24,14,28,15.00
2005,05,24,14,29,15.00
2005,05,24,14,30,15.00
2005,05,24,14,31,15.10
2005,05,24,14,32,15.00
2005,05,24,14,33,15.00
2005,05,24,14,34,15.00
2005,05,24,14,35,15.00
2005,05,24,14,36,15.00
2005,05,24,14,37,15.10
2005,05,24,14,38,15.30
2005,05,24,14,39,15.30
2005,05,24,14,40,15.20
2005,05,24,14,41,15.20
2005,05,24,14,42,15.20
2005,05,24,14,43,15.20
2005,05,24,14,44,15.30
2005,05,24,14,45,15.30
2005,05,24,14,46,15.50
2005,05,24,14,47,15.70
2005,05,24,14,48,15.80
2005,05,24,14,49,15.80
2005,05,24,14,50,15.80
2005,05,24,14,51,15.70
2005,05,24,14,52,15.60
2005,05,24,14,53,15.60
2005,05,24,14,54,15.70
2005,05,24,14,55,15.60
2005,05,24,14,56,15.50
2005,05,24,14,57,15.60
2005,05,24,14,58,15.70
2005,05,24,14,59,15.70
2005,05,24,15,00,15.70
2005,05,24,15,01,15.60
2005,05,24,15,02,15.50
2005,05,24,15,03,15.40
2005,05,24,15,04,15.60
2005,05,24,15,05,15.70
2005,05,24,15,06,15.80
2005,05,24,15,07,16.00
2005,05,24,15,08,16.00
2005,05,24,15,09,15.90
2005,05,24,15,10,15.80
2005,05,24,15,11,15.80
2005,05,24,15,12,15.70
2005,05,24,15,13,15.60
2005,05,24,15,14,15.60
2005,05,24,15,15,15.70
2005,05,24,15,16,15.80
2005,05,24,15,17,15.80
2005,05,24,15,18,15.70
2005,05,24,15,19,15.60
2005,05,24,15,20,15.60
2005,05,24,15,21,15.60
2005,05,24,15,22,15.50
2005,05,24,15,23,15.50
2005,05,24,15,24,15.60
2005,05,24,15,25,15.50
2005,05,24,15,26,15.50
2005,05,24,15,27,15.60
2005,05,24,15,28,15.60
2005,05,24,15,29,15.80
2005,05,24,15,30,15.80
2005,05,24,15,31,15.80
2005,05,24,15,32,15.90
2005,05,24,15,33,15.90
2005,05,24,15,34,15.80
2005,05,24,15,35,15.70
2005,05,24,15,36,15.80
2005,05,24,15,37,15.80
2005,05,24,15,38,15.80
2005,05,24,15,39,15.80
2005,05,24,15,40,15.80
2005,05,24,15,41,15.90
2005,05,24,15,42,16.00
2005,05,24,15,43,16.10
2005,05,24,15,44,16.10
2005,05,24,15,45,16.10
2005,05,24,15,46,16.10
2005,05,24,15,47,16.00
2005,05,24,15,48,15.90
2005,05,24,15,49,15.90
2005,05,24,15,50,15.80
2005,05,24,15,51,15.80
2005,05,24,15,52,15.80
2005,05,24,15,53,15.80
2005,05,24,15,54,15.90
2005,05,24,15,55,15.90
2005,05,24,15,56,15.90
2005,05,24,15,57,15.90
2005,05,24,15,58,15.90
2005,05,24,15,59,15.90
2005,05,24,16,00,16.00
2005,05,24,16,01,16.10
2005,05,24,16,02,16.10
2005,05,24,16,03,16.30
2005,05,24,16,04,16.20
2005,05,24,16,05,16.20
2005,05,24,16,06,16.20
2005,05,24,16,07,16.30
2005,05,24,16,08,16.30
2005,05,24,16,09,16.30
2005,05,24,16,10,16.40
2005,05,24,16,11,16.60
2005,05,24,16,12,16.50
2005,05,24,16,13,16.40
2005,05,24,16,14,16.50
2005,05,24,16,15,16.40
2005,05,24,16,16,16.40
2005,05,24,16,17,16.40
2005,05,24,16,18,16.30
2005,05,24,16,19,16.30
2005,05,24,16,20,16.40
2005,05,24,16,21,16.30
2005,05,24,16,22,16.30
2005,05,24,16,23,16.30
2005,05,24,16,24,16.30
2005,05,24,16,25,16.30
2005,05,24,16,26,16.20
2005,05,24,16,27,16.10
2005,05,24,16,28,16.00
2005,05,24,16,29,16.10
2005,05,24,16,30,16.10
2005,05,24,16,31,16.10
2005,05,24,16,32,16.10
2005,05,24,16,33,16.30
2005,05,24,16,34,16.50
2005,05,24,16,35,16.50
2005,05,24,16,36,16.40
2005,05,24,16,37,16.40
2005,05,24,16,38,16.30
2005,05,24,16,39,16.20
2005,05,24,16,40,16.20
2005,05,24,16,41,16.10
2005,05,24,16,42,16.20
2005,05,24,16,43,16.30
2005,05,24,16,44,16.20
2005,05,24,16,45,16.20
2005,05,24,16,46,16.20
2005,05,24,16,47,16.30
2005,05,24,16,48,16.40
2005,05,24,16,49,16.50
2005,05,24,16,50,16.70
2005,05,24,16,51,16.70
2005,05,24,16,52,16.70
2005,05,24,16,53,16.70
2005,05,24,16,54,16.70
2005,05,24,16,55,16.60
2005,05,24,16,56,16.50
2005,05,24,16,57,16.60
2005,05,24,16,58,16.60
2005,05,24,16,59,16.60
2005,05,24,17,00,16.70
2005,05,24,17,01,16.70
2005,05,24,17,02,16.70
2005,05,24,17,03,16.70
2005,05,24,17,04,16.70
2005,05,24,17,05,18.00
2005,05,24,17,06,18.60
2005,05,24,17,07,18.90
2005,05,24,17,08,19.00
2005,05,24,17,09,19.10
2005,05,24,17,10,19.10
2005,05,24,17,11,19.20
2005,05,24,17,12,19.30
2005,05,24,17,13,19.50
2005,05,24,17,14,19.10
2005,05,24,17,15,19.10
2005,05,24,17,16,19.10
2005,05,24,17,17,19.00
2005,05,24,17,18,19.10
2005,05,24,17,19,19.30
2005,05,24,17,20,19.40
2005,05,24,17,21,19.40
2005,05,24,17,22,19.40
2005,05,24,17,23,19.30
2005,05,24,17,24,19.30
2005,05,24,17,25,19.40
2005,05,24,17,26,19.40
2005,05,24,17,27,19.60
2005,05,24,17,28,19.50
2005,05,24,17,29,19.50
2005,05,24,17,30,19.60
2005,05,24,17,31,19.50
2005,05,24,17,32,19.60
2005,05,24,17,33,19.60
2005,05,24,17,34,19.70
2005,05,24,17,35,19.50
2005,05,24,17,36,19.30
2005,05,24,17,37,19.20
2005,05,24,17,38,19.00
2005,05,24,17,39,18.90
2005,05,24,17,40,18.90
2005,05,24,17,41,19.00
2005,05,24,17,42,19.00
2005,05,24,17,43,19.10
2005,05,24,17,44,19.20
2005,05,24,17,45,19.20
2005,05,24,17,46,19.30
2005,05,24,17,47,19.20
2005,05,24,17,48,19.20
2005,05,24,17,49,19.20
2005,05,24,17,50,19.20
2005,05,24,17,51,19.10
2005,05,24,17,52,19.10
2005,05,24,17,53,19.00
2005,05,24,17,54,18.90
2005,05,24,17,55,18.80
2005,05,24,17,56,19.00
2005,05,24,17,57,19.00
2005,05,24,17,58,19.00
2005,05,24,17,59,19.00
2005,05,24,18,00,18.90
2005,05,24,18,01,19.00
2005,05,24,18,02,19.10
2005,05,24,18,03,19.10
2005,05,24,18,04,18.90
2005,05,24,18,05,18.90
2005,05,24,18,06,18.90
2005,05,24,18,07,18.60
2005,05,24,18,08,18.60
2005,05,24,18,09,18.60